Weather History for KHLX - October, 2013

Change the Weather History Date:

Thursday, October 17, 2013

  Actual Average (KBLF) Record (KBLF)
Temperature  
Mean Temperature 62 °F 56 °F  
Max Temperature 66 °F 65 °F 78 °F (2000)
Min Temperature 55 °F 47 °F 30 °F (1970)
Degree Days  
Heating Degree Days 4 9  
Month to date heating degree days 129  
Since 1 July heating degree days 208  
Cooling Degree Days 0 0  
Month to date cooling degree days 16  
Year to date cooling degree days 848  
Growing Degree Days 12 (Base 50)    
Moisture  
Dew Point 60 °F    
Average Humidity 91    
Maximum Humidity 100    
Minimum Humidity 88    
Precipitation  
Precipitation 0.00 in 0.07 in 1.03 in (1989)
Month to date precipitation 1.39  
Year to date precipitation 32.92  
Snow  
Snow 0.00 in - - ()
Month to date snowfall  
Since 1 July snowfall  
Since 1 September snowfall  
Snow Depth -    
Sea Level Pressure  
Sea Level Pressure 29.98 in    
Wind  
Wind Speed 3 mph (SSW)    
Max Wind Speed 15 mph    
Max Gust Speed 17 mph    
Visibility 10 miles    
Events Rain    
T = Trace of Precipitation, MM = Missing Value Source: NWS Daily Summary

Daily Weather History Graph

Daily Weather History Graph

Search for Another Location

Airport or City:

Trip Planner

Search our weather history database for the weather conditions in past years. The results will help you decide how hot, cold, wet, or windy it might be!

Date:

Astronomy

Oct. 17, 2013 Rise Set
Actual Time 7:32 AM EDT 6:43 PM EDT
Civil Twilight 7:06 AM EDT 7:09 PM EDT
Nautical Twilight 6:36 AM EDT 7:39 PM EDT
Astronomical Twilight 6:06 AM EDT 8:09 PM EDT
Moon 5:56 PM EDT (10/17) 6:05 AM EDT (10/17)
Length of Visible Light 12h 03m
Length of Day
11h 11m
Waxing Gibbous, 98% of the Moon is Illuminated
Oct 17
Waxing Gibbous
Oct 18
Full
Oct 26
Last Quarter
Nov 3
New
Nov 10
First Quarter

Hourly Weather History & Observations

Time (EDT) Temp. Dew Point Humidity Pressure Visibility Wind Dir Wind Speed Gust Speed Precip Events Conditions
12:15 AM 60.8 °F 59.0 °F 94% 30.05 in 10.0 mi SSW 4.6 mph - N/A   Scattered Clouds
12:35 AM 60.8 °F 57.2 °F 88% 30.04 in 7.0 mi Calm Calm - N/A   Clear
12:55 AM 60.8 °F 57.2 °F 88% 30.04 in 10.0 mi Calm Calm - N/A   Clear
1:15 AM 60.8 °F 57.2 °F 88% 30.04 in 10.0 mi Calm Calm - N/A   Clear
1:35 AM 60.8 °F 57.2 °F 88% 30.04 in 10.0 mi South 3.5 mph - N/A   Clear
1:55 AM 60.8 °F 57.2 °F 88% 30.03 in 10.0 mi Calm Calm - N/A   Clear
2:15 AM 60.8 °F 57.2 °F 88% 30.03 in 10.0 mi Calm Calm - N/A   Clear
2:35 AM 60.8 °F 57.2 °F 88% 30.03 in 10.0 mi Calm Calm - N/A   Clear
2:55 AM 60.8 °F 57.2 °F 88% 30.02 in 10.0 mi South 3.5 mph - N/A   Scattered Clouds
3:15 AM 60.8 °F 57.2 °F 88% 30.01 in 10.0 mi Calm Calm - N/A   Scattered Clouds
3:35 AM 60.8 °F 57.2 °F 88% 30.01 in 10.0 mi Calm Calm - N/A   Clear
3:55 AM 60.8 °F 57.2 °F 88% 30.00 in 10.0 mi Calm Calm - N/A   Scattered Clouds
4:15 AM 60.8 °F 57.2 °F 88% 30.00 in 10.0 mi Calm Calm - N/A   Scattered Clouds
4:35 AM 60.8 °F 57.2 °F 88% 30.00 in 10.0 mi Calm Calm - N/A   Scattered Clouds
4:55 AM 60.8 °F 57.2 °F 88% 30.00 in 10.0 mi Calm Calm - N/A   Scattered Clouds
5:15 AM 60.8 °F 57.2 °F 88% 29.99 in 10.0 mi Calm Calm - N/A   Scattered Clouds
5:35 AM 60.8 °F 57.2 °F 88% 29.99 in 10.0 mi Calm Calm - N/A   Scattered Clouds
5:55 AM 60.8 °F 57.2 °F 88% 30.00 in 10.0 mi South 3.5 mph - N/A   Scattered Clouds
6:15 AM 60.8 °F 57.2 °F 88% 30.01 in 10.0 mi SW 3.5 mph - N/A   Scattered Clouds
6:35 AM 60.8 °F 57.2 °F 88% 30.00 in 10.0 mi Calm Calm - N/A   Mostly Cloudy
6:55 AM 60.8 °F 57.2 °F 88% 29.99 in 10.0 mi SSE 3.5 mph - N/A   Mostly Cloudy
7:15 AM 60.8 °F 57.2 °F 88% 29.99 in 10.0 mi Calm Calm - N/A   Overcast
7:35 AM 60.8 °F 57.2 °F 88% 29.99 in 10.0 mi Calm Calm - N/A   Overcast
7:55 AM 60.8 °F 57.2 °F 88% 29.99 in 10.0 mi Calm Calm - N/A   Overcast
8:15 AM 60.8 °F 59.0 °F 94% 30.00 in 10.0 mi South 3.5 mph - N/A Rain Light Rain
8:35 AM 60.8 °F 59.0 °F 94% 30.00 in 10.0 mi Calm Calm - N/A   Overcast
8:55 AM 60.8 °F 59.0 °F 94% 30.00 in 10.0 mi Calm Calm - N/A   Overcast
9:15 AM 60.8 °F 59.0 °F 94% 30.00 in 10.0 mi Calm Calm - N/A   Overcast
9:35 AM 62.6 °F 60.8 °F 94% 30.00 in 10.0 mi Calm Calm - N/A   Light Drizzle
9:55 AM 62.6 °F 60.8 °F 94% 30.00 in 10.0 mi South 4.6 mph - N/A Rain Light Rain
10:15 AM 62.6 °F 60.8 °F 94% 30.00 in 10.0 mi South 3.5 mph - N/A   Mostly Cloudy
10:35 AM 62.6 °F 60.8 °F 94% 29.99 in 10.0 mi South 3.5 mph - N/A   Mostly Cloudy
10:55 AM 64.4 °F 60.8 °F 88% 29.99 in 10.0 mi SSW 5.8 mph - N/A   Overcast
11:15 AM 64.4 °F 60.8 °F 88% 30.00 in 7.0 mi South 6.9 mph - N/A Rain Rain
11:35 AM 62.6 °F 60.8 °F 94% 29.99 in 5.0 mi South 3.5 mph - N/A Rain Light Rain
11:55 AM 62.6 °F 62.6 °F 100% 29.98 in 5.0 mi South 3.5 mph - N/A Rain Light Rain
12:15 PM 62.6 °F 62.6 °F 100% 29.98 in 5.0 mi South 4.6 mph - N/A Rain Light Rain
12:35 PM 64.4 °F 62.6 °F 94% 29.97 in 7.0 mi South 6.9 mph - N/A   Scattered Clouds
12:55 PM 66.2 °F 64.4 °F 94% 29.96 in 10.0 mi SSW 4.6 mph - N/A   Mostly Cloudy
1:15 PM 66.2 °F 64.4 °F 94% 29.95 in 10.0 mi South 4.6 mph - N/A   Mostly Cloudy
1:35 PM 66.2 °F 64.4 °F 94% 29.94 in 10.0 mi South 3.5 mph - N/A   Scattered Clouds
1:55 PM 66.2 °F 64.4 °F 94% 29.93 in 10.0 mi South 9.2 mph - N/A   Scattered Clouds
2:15 PM 66.2 °F 62.6 °F 88% 29.93 in 10.0 mi South 6.9 mph - N/A   Mostly Cloudy
2:35 PM 66.2 °F 62.6 °F 88% 29.92 in 10.0 mi South 6.9 mph - N/A   Mostly Cloudy
2:55 PM 64.4 °F 62.6 °F 94% 29.92 in 10.0 mi South 4.6 mph - N/A Rain Light Rain
3:15 PM 64.4 °F 62.6 °F 94% 29.91 in 10.0 mi South 5.8 mph - N/A Rain Light Rain
3:35 PM 64.4 °F 62.6 °F 94% 29.91 in 10.0 mi South 6.9 mph - N/A   Overcast
3:55 PM 64.4 °F 62.6 °F 94% 29.91 in 10.0 mi South 5.8 mph - N/A   Overcast
4:15 PM 64.4 °F 62.6 °F 94% 29.91 in 10.0 mi South 6.9 mph - N/A   Overcast
4:35 PM 66.2 °F 62.6 °F 88% 29.90 in 10.0 mi South 11.5 mph 17.3 mph N/A   Overcast
4:55 PM 64.4 °F 62.6 °F 94% 29.90 in 10.0 mi South 6.9 mph - N/A   Overcast
5:15 PM 64.4 °F 62.6 °F 94% 29.90 in 10.0 mi SSW 8.1 mph - N/A   Overcast
5:35 PM 64.4 °F 62.6 °F 94% 29.90 in 10.0 mi South 11.5 mph - N/A   Overcast
5:55 PM 64.4 °F 62.6 °F 94% 29.91 in 10.0 mi SSW 5.8 mph - N/A   Mostly Cloudy
6:15 PM 64.4 °F 62.6 °F 94% 29.91 in 10.0 mi SSW 8.1 mph - N/A   Mostly Cloudy
6:35 PM 64.4 °F 62.6 °F 94% 29.91 in 10.0 mi SSW 5.8 mph - N/A   Scattered Clouds
6:55 PM 64.4 °F 62.6 °F 94% 29.92 in 10.0 mi SW 5.8 mph - N/A   Scattered Clouds
7:15 PM 64.4 °F 62.6 °F 94% 29.92 in 10.0 mi SSW 4.6 mph - N/A   Mostly Cloudy
7:35 PM 64.4 °F 62.6 °F 94% 29.94 in 10.0 mi WNW 4.6 mph - N/A   Scattered Clouds
7:55 PM 64.4 °F 62.6 °F 94% 29.94 in 10.0 mi West 8.1 mph - N/A   Scattered Clouds
8:15 PM 64.4 °F 62.6 °F 94% 29.95 in 10.0 mi WNW 10.4 mph - N/A Rain Light Rain
8:35 PM 62.6 °F 60.8 °F 94% 29.96 in 10.0 mi WNW 10.4 mph - N/A   Scattered Clouds
8:55 PM 62.6 °F 60.8 °F 94% 29.96 in 10.0 mi WNW 8.1 mph - N/A   Scattered Clouds
9:15 PM 62.6 °F 59.0 °F 88% 29.97 in 10.0 mi WNW 8.1 mph - N/A   Scattered Clouds
9:35 PM 60.8 °F 57.2 °F 88% 29.97 in 10.0 mi NW 9.2 mph - N/A   Scattered Clouds
9:55 PM 60.8 °F 57.2 °F 88% 29.99 in 10.0 mi WNW 10.4 mph - N/A   Clear
10:15 PM 59.0 °F 55.4 °F 88% 29.99 in 10.0 mi WNW 10.4 mph - N/A   Scattered Clouds
10:35 PM 59.0 °F 55.4 °F 88% 29.99 in 10.0 mi NW 9.2 mph - N/A   Scattered Clouds
10:55 PM 57.2 °F 55.4 °F 94% 30.00 in 10.0 mi NW 9.2 mph - N/A   Clear
11:15 PM 57.2 °F 55.4 °F 94% 30.01 in 10.0 mi WNW 9.2 mph - N/A   Scattered Clouds
11:35 PM 57.2 °F 55.4 °F 94% 30.01 in 10.0 mi NNW 12.7 mph 17.3 mph N/A   Overcast
11:55 PM 55.4 °F 53.6 °F 94% 30.01 in 10.0 mi NW 15.0 mph - N/A   Overcast